Date_Time,Julian_Date,Latitude,Longitude,Instrument_Depth,Water_Temperature
(yyyy-mm-dd hh:mn:ss UTC),(JD),(+ deg. North),(+ deg. East),(m),(deg. C)
1984-07-18 09:00:00 UTC,2445899.875000,25.7150,-84.8850,0172,13.7700
1984-07-18 09:30:00 UTC,2445899.895833,25.7150,-84.8850,0172,13.5910
1984-07-18 10:00:00 UTC,2445899.916667,25.7150,-84.8850,0172,13.6450
1984-07-18 10:30:00 UTC,2445899.937500,25.7150,-84.8850,0172,13.6760
1984-07-18 11:00:00 UTC,2445899.958333,25.7150,-84.8850,0172,13.7220
1984-07-18 11:30:00 UTC,2445899.979167,25.7150,-84.8850,0172,13.7310
1984-07-18 12:00:00 UTC,2445900.000000,25.7150,-84.8850,0172,13.8180
1984-07-18 12:30:00 UTC,2445900.020833,25.7150,-84.8850,0172,13.8360
1984-07-18 13:00:00 UTC,2445900.041667,25.7150,-84.8850,0172,13.8320
1984-07-18 13:30:00 UTC,2445900.062500,25.7150,-84.8850,0172,13.8620
1984-07-18 14:00:00 UTC,2445900.083333,25.7150,-84.8850,0172,13.8620
1984-07-18 14:30:00 UTC,2445900.104167,25.7150,-84.8850,0172,13.8670
1984-07-18 15:00:00 UTC,2445900.125000,25.7150,-84.8850,0172,13.8150
1984-07-18 15:30:00 UTC,2445900.145833,25.7150,-84.8850,0172,13.7880
1984-07-18 16:00:00 UTC,2445900.166667,25.7150,-84.8850,0172,13.7640
1984-07-18 16:30:00 UTC,2445900.187500,25.7150,-84.8850,0172,13.6990
1984-07-18 17:00:00 UTC,2445900.208333,25.7150,-84.8850,0172,13.6920
1984-07-18 17:30:00 UTC,2445900.229167,25.7150,-84.8850,0172,13.7100
1984-07-18 18:00:00 UTC,2445900.250000,25.7150,-84.8850,0172,13.6890
1984-07-18 18:30:00 UTC,2445900.270833,25.7150,-84.8850,0172,13.6620
1984-07-18 19:00:00 UTC,2445900.291667,25.7150,-84.8850,0172,13.6310
1984-07-18 19:30:00 UTC,2445900.312500,25.7150,-84.8850,0172,13.5870
1984-07-18 20:00:00 UTC,2445900.333333,25.7150,-84.8850,0172,13.5610
1984-07-18 20:30:00 UTC,2445900.354167,25.7150,-84.8850,0172,13.5900
1984-07-18 21:00:00 UTC,2445900.375000,25.7150,-84.8850,0172,13.5820
1984-07-18 21:30:00 UTC,2445900.395833,25.7150,-84.8850,0172,13.5590
1984-07-18 22:00:00 UTC,2445900.416667,25.7150,-84.8850,0172,13.5890
1984-07-18 22:30:00 UTC,2445900.437500,25.7150,-84.8850,0172,13.5680
1984-07-18 23:00:00 UTC,2445900.458333,25.7150,-84.8850,0172,13.6060
1984-07-18 23:30:00 UTC,2445900.479167,25.7150,-84.8850,0172,13.6770
1984-07-19 00:00:00 UTC,2445900.500000,25.7150,-84.8850,0172,13.6940
1984-07-19 00:30:00 UTC,2445900.520833,25.7150,-84.8850,0172,13.7190
1984-07-19 01:00:00 UTC,2445900.541667,25.7150,-84.8850,0172,13.7980
1984-07-19 01:30:00 UTC,2445900.562500,25.7150,-84.8850,0172,13.8910
1984-07-19 02:00:00 UTC,2445900.583333,25.7150,-84.8850,0172,13.9130
1984-07-19 02:30:00 UTC,2445900.604167,25.7150,-84.8850,0172,14.0630
1984-07-19 03:00:00 UTC,2445900.625000,25.7150,-84.8850,0172,14.1410
1984-07-19 03:30:00 UTC,2445900.645833,25.7150,-84.8850,0172,14.1360
1984-07-19 04:00:00 UTC,2445900.666667,25.7150,-84.8850,0172,14.1310
1984-07-19 04:30:00 UTC,2445900.687500,25.7150,-84.8850,0172,14.0800
1984-07-19 05:00:00 UTC,2445900.708333,25.7150,-84.8850,0172,14.0210
1984-07-19 05:30:00 UTC,2445900.729167,25.7150,-84.8850,0172,13.9290
1984-07-19 06:00:00 UTC,2445900.750000,25.7150,-84.8850,0172,13.8340
1984-07-19 06:30:00 UTC,2445900.770833,25.7150,-84.8850,0172,13.7410
1984-07-19 07:00:00 UTC,2445900.791667,25.7150,-84.8850,0172,13.6810
1984-07-19 07:30:00 UTC,2445900.812500,25.7150,-84.8850,0172,13.6600
1984-07-19 08:00:00 UTC,2445900.833333,25.7150,-84.8850,0172,13.6610
1984-07-19 08:30:00 UTC,2445900.854167,25.7150,-84.8850,0172,13.6450
1984-07-19 09:00:00 UTC,2445900.875000,25.7150,-84.8850,0172,13.6410
1984-07-19 09:30:00 UTC,2445900.895833,25.7150,-84.8850,0172,13.6320
1984-07-19 10:00:00 UTC,2445900.916667,25.7150,-84.8850,0172,13.5920
1984-07-19 10:30:00 UTC,2445900.937500,25.7150,-84.8850,0172,13.5510
1984-07-19 11:00:00 UTC,2445900.958333,25.7150,-84.8850,0172,13.5220
1984-07-19 11:30:00 UTC,2445900.979167,25.7150,-84.8850,0172,13.5260
1984-07-19 12:00:00 UTC,2445901.000000,25.7150,-84.8850,0172,13.5980
1984-07-19 12:30:00 UTC,2445901.020833,25.7150,-84.8850,0172,13.6670
1984-07-19 13:00:00 UTC,2445901.041667,25.7150,-84.8850,0172,13.7030
1984-07-19 13:30:00 UTC,2445901.062500,25.7150,-84.8850,0172,13.8030
1984-07-19 14:00:00 UTC,2445901.083333,25.7150,-84.8850,0172,13.8200
1984-07-19 14:30:00 UTC,2445901.104167,25.7150,-84.8850,0172,13.7980
1984-07-19 15:00:00 UTC,2445901.125000,25.7150,-84.8850,0172,13.8220
1984-07-19 15:30:00 UTC,2445901.145833,25.7150,-84.8850,0172,13.8280
1984-07-19 16:00:00 UTC,2445901.166667,25.7150,-84.8850,0172,13.7930
1984-07-19 16:30:00 UTC,2445901.187500,25.7150,-84.8850,0172,13.8360
1984-07-19 17:00:00 UTC,2445901.208333,25.7150,-84.8850,0172,13.7910
1984-07-19 17:30:00 UTC,2445901.229167,25.7150,-84.8850,0172,13.7940
1984-07-19 18:00:00 UTC,2445901.250000,25.7150,-84.8850,0172,13.8150
1984-07-19 18:30:00 UTC,2445901.270833,25.7150,-84.8850,0172,13.7800
1984-07-19 19:00:00 UTC,2445901.291667,25.7150,-84.8850,0172,13.8300
1984-07-19 19:30:00 UTC,2445901.312500,25.7150,-84.8850,0172,13.7710
1984-07-19 20:00:00 UTC,2445901.333333,25.7150,-84.8850,0172,13.5670
1984-07-19 20:30:00 UTC,2445901.354167,25.7150,-84.8850,0172,13.4620
1984-07-19 21:00:00 UTC,2445901.375000,25.7150,-84.8850,0172,13.4650
1984-07-19 21:30:00 UTC,2445901.395833,25.7150,-84.8850,0172,13.4130
1984-07-19 22:00:00 UTC,2445901.416667,25.7150,-84.8850,0172,13.3370
1984-07-19 22:30:00 UTC,2445901.437500,25.7150,-84.8850,0172,13.3210
1984-07-19 23:00:00 UTC,2445901.458333,25.7150,-84.8850,0172,13.3480
1984-07-19 23:30:00 UTC,2445901.479167,25.7150,-84.8850,0172,13.3310
1984-07-20 00:00:00 UTC,2445901.500000,25.7150,-84.8850,0172,13.2950
1984-07-20 00:30:00 UTC,2445901.520833,25.7150,-84.8850,0172,13.2920
1984-07-20 01:00:00 UTC,2445901.541667,25.7150,-84.8850,0172,13.2760
1984-07-20 01:30:00 UTC,2445901.562500,25.7150,-84.8850,0172,13.2910
1984-07-20 02:00:00 UTC,2445901.583333,25.7150,-84.8850,0172,13.3360
1984-07-20 02:30:00 UTC,2445901.604167,25.7150,-84.8850,0172,13.3710
1984-07-20 03:00:00 UTC,2445901.625000,25.7150,-84.8850,0172,13.4000
1984-07-20 03:30:00 UTC,2445901.645833,25.7150,-84.8850,0172,13.4350
1984-07-20 04:00:00 UTC,2445901.666667,25.7150,-84.8850,0172,13.4570
1984-07-20 04:30:00 UTC,2445901.687500,25.7150,-84.8850,0172,13.4500
1984-07-20 05:00:00 UTC,2445901.708333,25.7150,-84.8850,0172,13.4410
1984-07-20 05:30:00 UTC,2445901.729167,25.7150,-84.8850,0172,13.4610
1984-07-20 06:00:00 UTC,2445901.750000,25.7150,-84.8850,0172,13.4830
1984-07-20 06:30:00 UTC,2445901.770833,25.7150,-84.8850,0172,13.5070
1984-07-20 07:00:00 UTC,2445901.791667,25.7150,-84.8850,0172,13.5300
1984-07-20 07:30:00 UTC,2445901.812500,25.7150,-84.8850,0172,13.4820
1984-07-20 08:00:00 UTC,2445901.833333,25.7150,-84.8850,0172,13.5450
1984-07-20 08:30:00 UTC,2445901.854167,25.7150,-84.8850,0172,13.6470
1984-07-20 09:00:00 UTC,2445901.875000,25.7150,-84.8850,0172,13.5740
1984-07-20 09:30:00 UTC,2445901.895833,25.7150,-84.8850,0172,13.5130
1984-07-20 10:00:00 UTC,2445901.916667,25.7150,-84.8850,0172,13.5110
1984-07-20 10:30:00 UTC,2445901.937500,25.7150,-84.8850,0172,13.5700
1984-07-20 11:00:00 UTC,2445901.958333,25.7150,-84.8850,0172,13.4640
1984-07-20 11:30:00 UTC,2445901.979167,25.7150,-84.8850,0172,13.3280
1984-07-20 12:00:00 UTC,2445902.000000,25.7150,-84.8850,0172,13.2460
1984-07-20 12:30:00 UTC,2445902.020833,25.7150,-84.8850,0172,13.2180
1984-07-20 13:00:00 UTC,2445902.041667,25.7150,-84.8850,0172,13.2040
1984-07-20 13:30:00 UTC,2445902.062500,25.7150,-84.8850,0172,13.2330
1984-07-20 14:00:00 UTC,2445902.083333,25.7150,-84.8850,0172,13.3230
1984-07-20 14:30:00 UTC,2445902.104167,25.7150,-84.8850,0172,13.3980
1984-07-20 15:00:00 UTC,2445902.125000,25.7150,-84.8850,0172,13.3050
1984-07-20 15:30:00 UTC,2445902.145833,25.7150,-84.8850,0172,13.2660
1984-07-20 16:00:00 UTC,2445902.166667,25.7150,-84.8850,0172,13.2640
1984-07-20 16:30:00 UTC,2445902.187500,25.7150,-84.8850,0172,13.3840
1984-07-20 17:00:00 UTC,2445902.208333,25.7150,-84.8850,0172,13.5220
1984-07-20 17:30:00 UTC,2445902.229167,25.7150,-84.8850,0172,13.4480
1984-07-20 18:00:00 UTC,2445902.250000,25.7150,-84.8850,0172,13.3320
1984-07-20 18:30:00 UTC,2445902.270833,25.7150,-84.8850,0172,13.2750
1984-07-20 19:00:00 UTC,2445902.291667,25.7150,-84.8850,0172,13.2860
1984-07-20 19:30:00 UTC,2445902.312500,25.7150,-84.8850,0172,13.3090
1984-07-20 20:00:00 UTC,2445902.333333,25.7150,-84.8850,0172,13.3120
1984-07-20 20:30:00 UTC,2445902.354167,25.7150,-84.8850,0172,13.3030
1984-07-20 21:00:00 UTC,2445902.375000,25.7150,-84.8850,0172,13.3020
1984-07-20 21:30:00 UTC,2445902.395833,25.7150,-84.8850,0172,13.2830
1984-07-20 22:00:00 UTC,2445902.416667,25.7150,-84.8850,0172,13.2420
1984-07-20 22:30:00 UTC,2445902.437500,25.7150,-84.8850,0172,13.2020
1984-07-20 23:00:00 UTC,2445902.458333,25.7150,-84.8850,0172,13.1730
1984-07-20 23:30:00 UTC,2445902.479167,25.7150,-84.8850,0172,13.1290
1984-07-21 00:00:00 UTC,2445902.500000,25.7150,-84.8850,0172,13.1860
1984-07-21 00:30:00 UTC,2445902.520833,25.7150,-84.8850,0172,13.1850
1984-07-21 01:00:00 UTC,2445902.541667,25.7150,-84.8850,0172,13.2520
1984-07-21 01:30:00 UTC,2445902.562500,25.7150,-84.8850,0172,11.6740
1984-07-21 02:00:00 UTC,2445902.583333,25.7150,-84.8850,0172,12.2510
1984-07-21 02:30:00 UTC,2445902.604167,25.7150,-84.8850,0172,12.8290
1984-07-21 03:00:00 UTC,2445902.625000,25.7150,-84.8850,0172,13.4060
1984-07-21 03:30:00 UTC,2445902.645833,25.7150,-84.8850,0172,13.9830
1984-07-21 04:00:00 UTC,2445902.666667,25.7150,-84.8850,0172,12.9580
1984-07-21 04:30:00 UTC,2445902.687500,25.7150,-84.8850,0172,13.3220
1984-07-21 05:00:00 UTC,2445902.708333,25.7150,-84.8850,0172,13.3030
1984-07-21 05:30:00 UTC,2445902.729167,25.7150,-84.8850,0172,13.3380
1984-07-21 06:00:00 UTC,2445902.750000,25.7150,-84.8850,0172,13.3040
1984-07-21 06:30:00 UTC,2445902.770833,25.7150,-84.8850,0172,13.4010
1984-07-21 07:00:00 UTC,2445902.791667,25.7150,-84.8850,0172,13.4420
1984-07-21 07:30:00 UTC,2445902.812500,25.7150,-84.8850,0172,13.3040
1984-07-21 08:00:00 UTC,2445902.833333,25.7150,-84.8850,0172,13.2870
1984-07-21 08:30:00 UTC,2445902.854167,25.7150,-84.8850,0172,13.4000
1984-07-21 09:00:00 UTC,2445902.875000,25.7150,-84.8850,0172,13.4200
1984-07-21 09:30:00 UTC,2445902.895833,25.7150,-84.8850,0172,13.3660
1984-07-21 10:00:00 UTC,2445902.916667,25.7150,-84.8850,0172,13.3710
1984-07-21 10:30:00 UTC,2445902.937500,25.7150,-84.8850,0172,13.3460
1984-07-21 11:00:00 UTC,2445902.958333,25.7150,-84.8850,0172,13.3290
1984-07-21 11:30:00 UTC,2445902.979167,25.7150,-84.8850,0172,13.3650
1984-07-21 12:00:00 UTC,2445903.000000,25.7150,-84.8850,0172,13.4010
1984-07-21 12:30:00 UTC,2445903.020833,25.7150,-84.8850,0172,13.4400
1984-07-21 13:00:00 UTC,2445903.041667,25.7150,-84.8850,0172,13.4060
1984-07-21 13:30:00 UTC,2445903.062500,25.7150,-84.8850,0172,13.3480
1984-07-21 14:00:00 UTC,2445903.083333,25.7150,-84.8850,0172,13.3340
1984-07-21 14:30:00 UTC,2445903.104167,25.7150,-84.8850,0172,13.2930
1984-07-21 15:00:00 UTC,2445903.125000,25.7150,-84.8850,0172,13.3220
1984-07-21 15:30:00 UTC,2445903.145833,25.7150,-84.8850,0172,13.3220
1984-07-21 16:00:00 UTC,2445903.166667,25.7150,-84.8850,0172,13.3350
1984-07-21 16:30:00 UTC,2445903.187500,25.7150,-84.8850,0172,13.3190
1984-07-21 17:00:00 UTC,2445903.208333,25.7150,-84.8850,0172,13.2840
1984-07-21 17:30:00 UTC,2445903.229167,25.7150,-84.8850,0172,13.2530
1984-07-21 18:00:00 UTC,2445903.250000,25.7150,-84.8850,0172,13.2400
1984-07-21 18:30:00 UTC,2445903.270833,25.7150,-84.8850,0172,13.2560
1984-07-21 19:00:00 UTC,2445903.291667,25.7150,-84.8850,0172,13.2800
1984-07-21 19:30:00 UTC,2445903.312500,25.7150,-84.8850,0172,13.3000
1984-07-21 20:00:00 UTC,2445903.333333,25.7150,-84.8850,0172,13.2810
1984-07-21 20:30:00 UTC,2445903.354167,25.7150,-84.8850,0172,13.2250
1984-07-21 21:00:00 UTC,2445903.375000,25.7150,-84.8850,0172,13.2270
1984-07-21 21:30:00 UTC,2445903.395833,25.7150,-84.8850,0172,13.2410
1984-07-21 22:00:00 UTC,2445903.416667,25.7150,-84.8850,0172,13.2470
1984-07-21 22:30:00 UTC,2445903.437500,25.7150,-84.8850,0172,13.2580
1984-07-21 23:00:00 UTC,2445903.458333,25.7150,-84.8850,0172,13.2740
1984-07-21 23:30:00 UTC,2445903.479167,25.7150,-84.8850,0172,13.2720
1984-07-22 00:00:00 UTC,2445903.500000,25.7150,-84.8850,0172,13.2530
1984-07-22 00:30:00 UTC,2445903.520833,25.7150,-84.8850,0172,13.2320
1984-07-22 01:00:00 UTC,2445903.541667,25.7150,-84.8850,0172,13.2250
1984-07-22 01:30:00 UTC,2445903.562500,25.7150,-84.8850,0172,13.2220
1984-07-22 02:00:00 UTC,2445903.583333,25.7150,-84.8850,0172,13.2120
1984-07-22 02:30:00 UTC,2445903.604167,25.7150,-84.8850,0172,13.1950
1984-07-22 03:00:00 UTC,2445903.625000,25.7150,-84.8850,0172,13.1910
1984-07-22 03:30:00 UTC,2445903.645833,25.7150,-84.8850,0172,13.1830
1984-07-22 04:00:00 UTC,2445903.666667,25.7150,-84.8850,0172,13.1750
1984-07-22 04:30:00 UTC,2445903.687500,25.7150,-84.8850,0172,13.1690
1984-07-22 05:00:00 UTC,2445903.708333,25.7150,-84.8850,0172,13.1810
1984-07-22 05:30:00 UTC,2445903.729167,25.7150,-84.8850,0172,13.2070
1984-07-22 06:00:00 UTC,2445903.750000,25.7150,-84.8850,0172,13.2220
1984-07-22 06:30:00 UTC,2445903.770833,25.7150,-84.8850,0172,13.2480
1984-07-22 07:00:00 UTC,2445903.791667,25.7150,-84.8850,0172,13.2380
1984-07-22 07:30:00 UTC,2445903.812500,25.7150,-84.8850,0172,13.2360
1984-07-22 08:00:00 UTC,2445903.833333,25.7150,-84.8850,0172,13.2350
1984-07-22 08:30:00 UTC,2445903.854167,25.7150,-84.8850,0172,13.2370
1984-07-22 09:00:00 UTC,2445903.875000,25.7150,-84.8850,0172,13.2670
1984-07-22 09:30:00 UTC,2445903.895833,25.7150,-84.8850,0172,13.2730
1984-07-22 10:00:00 UTC,2445903.916667,25.7150,-84.8850,0172,13.2570
1984-07-22 10:30:00 UTC,2445903.937500,25.7150,-84.8850,0172,13.2360
1984-07-22 11:00:00 UTC,2445903.958333,25.7150,-84.8850,0172,13.2180
1984-07-22 11:30:00 UTC,2445903.979167,25.7150,-84.8850,0172,13.1990
1984-07-22 12:00:00 UTC,2445904.000000,25.7150,-84.8850,0172,13.1760
1984-07-22 12:30:00 UTC,2445904.020833,25.7150,-84.8850,0172,13.1440
1984-07-22 13:00:00 UTC,2445904.041667,25.7150,-84.8850,0172,13.1110
1984-07-22 13:30:00 UTC,2445904.062500,25.7150,-84.8850,0172,13.0790
1984-07-22 14:00:00 UTC,2445904.083333,25.7150,-84.8850,0172,13.0460
1984-07-22 14:30:00 UTC,2445904.104167,25.7150,-84.8850,0172,13.0160
1984-07-22 15:00:00 UTC,2445904.125000,25.7150,-84.8850,0172,13.0200
1984-07-22 15:30:00 UTC,2445904.145833,25.7150,-84.8850,0172,13.1080
1984-07-22 16:00:00 UTC,2445904.166667,25.7150,-84.8850,0172,13.2020
1984-07-22 16:30:00 UTC,2445904.187500,25.7150,-84.8850,0172,13.3260
1984-07-22 17:00:00 UTC,2445904.208333,25.7150,-84.8850,0172,13.3710
1984-07-22 17:30:00 UTC,2445904.229167,25.7150,-84.8850,0172,13.3630
1984-07-22 18:00:00 UTC,2445904.250000,25.7150,-84.8850,0172,13.3560
1984-07-22 18:30:00 UTC,2445904.270833,25.7150,-84.8850,0172,13.3100
1984-07-22 19:00:00 UTC,2445904.291667,25.7150,-84.8850,0172,13.2630
1984-07-22 19:30:00 UTC,2445904.312500,25.7150,-84.8850,0172,13.2170
1984-07-22 20:00:00 UTC,2445904.333333,25.7150,-84.8850,0172,13.1700
1984-07-22 20:30:00 UTC,2445904.354167,25.7150,-84.8850,0172,13.1240
1984-07-22 21:00:00 UTC,2445904.375000,25.7150,-84.8850,0172,13.0890
1984-07-22 21:30:00 UTC,2445904.395833,25.7150,-84.8850,0172,13.0440
1984-07-22 22:00:00 UTC,2445904.416667,25.7150,-84.8850,0172,13.0410
1984-07-22 22:30:00 UTC,2445904.437500,25.7150,-84.8850,0172,13.0410
1984-07-22 23:00:00 UTC,2445904.458333,25.7150,-84.8850,0172,13.0520
1984-07-22 23:30:00 UTC,2445904.479167,25.7150,-84.8850,0172,13.0400
1984-07-23 00:00:00 UTC,2445904.500000,25.7150,-84.8850,0172,13.0120
1984-07-23 00:30:00 UTC,2445904.520833,25.7150,-84.8850,0172,12.9840
1984-07-23 01:00:00 UTC,2445904.541667,25.7150,-84.8850,0172,12.9570
1984-07-23 01:30:00 UTC,2445904.562500,25.7150,-84.8850,0172,12.9310
1984-07-23 02:00:00 UTC,2445904.583333,25.7150,-84.8850,0172,12.9130
1984-07-23 02:30:00 UTC,2445904.604167,25.7150,-84.8850,0172,12.9510
1984-07-23 03:00:00 UTC,2445904.625000,25.7150,-84.8850,0172,13.1030
1984-07-23 03:30:00 UTC,2445904.645833,25.7150,-84.8850,0172,13.1010
1984-07-23 04:00:00 UTC,2445904.666667,25.7150,-84.8850,0172,13.0440
1984-07-23 04:30:00 UTC,2445904.687500,25.7150,-84.8850,0172,13.2290
1984-07-23 05:00:00 UTC,2445904.708333,25.7150,-84.8850,0172,13.1600
1984-07-23 05:30:00 UTC,2445904.729167,25.7150,-84.8850,0172,13.1230
1984-07-23 06:00:00 UTC,2445904.750000,25.7150,-84.8850,0172,13.0840
1984-07-23 06:30:00 UTC,2445904.770833,25.7150,-84.8850,0172,13.0600
1984-07-23 07:00:00 UTC,2445904.791667,25.7150,-84.8850,0172,13.0500
1984-07-23 07:30:00 UTC,2445904.812500,25.7150,-84.8850,0172,12.9950
1984-07-23 08:00:00 UTC,2445904.833333,25.7150,-84.8850,0172,12.9710
1984-07-23 08:30:00 UTC,2445904.854167,25.7150,-84.8850,0172,12.9570
1984-07-23 09:00:00 UTC,2445904.875000,25.7150,-84.8850,0172,12.9360
1984-07-23 09:30:00 UTC,2445904.895833,25.7150,-84.8850,0172,12.9180
1984-07-23 10:00:00 UTC,2445904.916667,25.7150,-84.8850,0172,12.9090
1984-07-23 10:30:00 UTC,2445904.937500,25.7150,-84.8850,0172,12.9440
1984-07-23 11:00:00 UTC,2445904.958333,25.7150,-84.8850,0172,12.9620
1984-07-23 11:30:00 UTC,2445904.979167,25.7150,-84.8850,0172,12.9810
1984-07-23 12:00:00 UTC,2445905.000000,25.7150,-84.8850,0172,13.0010
1984-07-23 12:30:00 UTC,2445905.020833,25.7150,-84.8850,0172,13.0200
1984-07-23 13:00:00 UTC,2445905.041667,25.7150,-84.8850,0172,13.0120
1984-07-23 13:30:00 UTC,2445905.062500,25.7150,-84.8850,0172,12.9470
1984-07-23 14:00:00 UTC,2445905.083333,25.7150,-84.8850,0172,12.9630
1984-07-23 14:30:00 UTC,2445905.104167,25.7150,-84.8850,0172,12.9830
1984-07-23 15:00:00 UTC,2445905.125000,25.7150,-84.8850,0172,13.0750
1984-07-23 15:30:00 UTC,2445905.145833,25.7150,-84.8850,0172,13.1600
1984-07-23 16:00:00 UTC,2445905.166667,25.7150,-84.8850,0172,13.2440
1984-07-23 16:30:00 UTC,2445905.187500,25.7150,-84.8850,0172,13.3240
1984-07-23 17:00:00 UTC,2445905.208333,25.7150,-84.8850,0172,13.3770
1984-07-23 17:30:00 UTC,2445905.229167,25.7150,-84.8850,0172,13.4720
1984-07-23 18:00:00 UTC,2445905.250000,25.7150,-84.8850,0172,13.5680
1984-07-23 18:30:00 UTC,2445905.270833,25.7150,-84.8850,0172,13.6050
1984-07-23 19:00:00 UTC,2445905.291667,25.7150,-84.8850,0172,13.5460
1984-07-23 19:30:00 UTC,2445905.312500,25.7150,-84.8850,0172,13.5320
1984-07-23 20:00:00 UTC,2445905.333333,25.7150,-84.8850,0172,13.5500
1984-07-23 20:30:00 UTC,2445905.354167,25.7150,-84.8850,0172,13.5220
1984-07-23 21:00:00 UTC,2445905.375000,25.7150,-84.8850,0172,13.4650
1984-07-23 21:30:00 UTC,2445905.395833,25.7150,-84.8850,0172,13.3480
1984-07-23 22:00:00 UTC,2445905.416667,25.7150,-84.8850,0172,13.2220
1984-07-23 22:30:00 UTC,2445905.437500,25.7150,-84.8850,0172,13.2770
1984-07-23 23:00:00 UTC,2445905.458333,25.7150,-84.8850,0172,13.2580
1984-07-23 23:30:00 UTC,2445905.479167,25.7150,-84.8850,0172,13.2300
1984-07-24 00:00:00 UTC,2445905.500000,25.7150,-84.8850,0172,13.2680
1984-07-24 00:30:00 UTC,2445905.520833,25.7150,-84.8850,0172,13.2210
1984-07-24 01:00:00 UTC,2445905.541667,25.7150,-84.8850,0172,13.1840
1984-07-24 01:30:00 UTC,2445905.562500,25.7150,-84.8850,0172,13.1580
1984-07-24 02:00:00 UTC,2445905.583333,25.7150,-84.8850,0172,13.1460
1984-07-24 02:30:00 UTC,2445905.604167,25.7150,-84.8850,0172,13.0870
1984-07-24 03:00:00 UTC,2445905.625000,25.7150,-84.8850,0172,13.1100
1984-07-24 03:30:00 UTC,2445905.645833,25.7150,-84.8850,0172,13.2200
1984-07-24 04:00:00 UTC,2445905.666667,25.7150,-84.8850,0172,13.2710
1984-07-24 04:30:00 UTC,2445905.687500,25.7150,-84.8850,0172,13.2540
1984-07-24 05:00:00 UTC,2445905.708333,25.7150,-84.8850,0172,13.1620
1984-07-24 05:30:00 UTC,2445905.729167,25.7150,-84.8850,0172,13.1910
1984-07-24 06:00:00 UTC,2445905.750000,25.7150,-84.8850,0172,13.2190
1984-07-24 06:30:00 UTC,2445905.770833,25.7150,-84.8850,0172,13.2550
1984-07-24 07:00:00 UTC,2445905.791667,25.7150,-84.8850,0172,13.2930
1984-07-24 07:30:00 UTC,2445905.812500,25.7150,-84.8850,0172,13.3270
1984-07-24 08:00:00 UTC,2445905.833333,25.7150,-84.8850,0172,13.3600
1984-07-24 08:30:00 UTC,2445905.854167,25.7150,-84.8850,0172,13.3900
1984-07-24 09:00:00 UTC,2445905.875000,25.7150,-84.8850,0172,13.3970
1984-07-24 09:30:00 UTC,2445905.895833,25.7150,-84.8850,0172,13.3890
1984-07-24 10:00:00 UTC,2445905.916667,25.7150,-84.8850,0172,13.3760
1984-07-24 10:30:00 UTC,2445905.937500,25.7150,-84.8850,0172,13.3690
1984-07-24 11:00:00 UTC,2445905.958333,25.7150,-84.8850,0172,13.3630
1984-07-24 11:30:00 UTC,2445905.979167,25.7150,-84.8850,0172,13.3580
1984-07-24 12:00:00 UTC,2445906.000000,25.7150,-84.8850,0172,13.3530
1984-07-24 12:30:00 UTC,2445906.020833,25.7150,-84.8850,0172,13.3460
1984-07-24 13:00:00 UTC,2445906.041667,25.7150,-84.8850,0172,13.3260
1984-07-24 13:30:00 UTC,2445906.062500,25.7150,-84.8850,0172,13.2850
1984-07-24 14:00:00 UTC,2445906.083333,25.7150,-84.8850,0172,13.2420
1984-07-24 14:30:00 UTC,2445906.104167,25.7150,-84.8850,0172,13.1870
1984-07-24 15:00:00 UTC,2445906.125000,25.7150,-84.8850,0172,13.1440
1984-07-24 15:30:00 UTC,2445906.145833,25.7150,-84.8850,0172,13.1290
1984-07-24 16:00:00 UTC,2445906.166667,25.7150,-84.8850,0172,13.1370
1984-07-24 16:30:00 UTC,2445906.187500,25.7150,-84.8850,0172,13.2090
1984-07-24 17:00:00 UTC,2445906.208333,25.7150,-84.8850,0172,13.2510
1984-07-24 17:30:00 UTC,2445906.229167,25.7150,-84.8850,0172,13.2940
1984-07-24 18:00:00 UTC,2445906.250000,25.7150,-84.8850,0172,13.3390
1984-07-24 18:30:00 UTC,2445906.270833,25.7150,-84.8850,0172,13.3850
1984-07-24 19:00:00 UTC,2445906.291667,25.7150,-84.8850,0172,13.4320
1984-07-24 19:30:00 UTC,2445906.312500,25.7150,-84.8850,0172,13.4820
1984-07-24 20:00:00 UTC,2445906.333333,25.7150,-84.8850,0172,13.5450
1984-07-24 20:30:00 UTC,2445906.354167,25.7150,-84.8850,0172,13.6150
1984-07-24 21:00:00 UTC,2445906.375000,25.7150,-84.8850,0172,13.6220
1984-07-24 21:30:00 UTC,2445906.395833,25.7150,-84.8850,0172,13.6010
1984-07-24 22:00:00 UTC,2445906.416667,25.7150,-84.8850,0172,13.5720
1984-07-24 22:30:00 UTC,2445906.437500,25.7150,-84.8850,0172,13.6050
1984-07-24 23:00:00 UTC,2445906.458333,25.7150,-84.8850,0172,13.6370
1984-07-24 23:30:00 UTC,2445906.479167,25.7150,-84.8850,0172,13.6690
1984-07-25 00:00:00 UTC,2445906.500000,25.7150,-84.8850,0172,13.7010
1984-07-25 00:30:00 UTC,2445906.520833,25.7150,-84.8850,0172,13.7010
1984-07-25 01:00:00 UTC,2445906.541667,25.7150,-84.8850,0172,13.6630
1984-07-25 01:30:00 UTC,2445906.562500,25.7150,-84.8850,0172,13.6290
1984-07-25 02:00:00 UTC,2445906.583333,25.7150,-84.8850,0172,13.6580
1984-07-25 02:30:00 UTC,2445906.604167,25.7150,-84.8850,0172,13.6140
1984-07-25 03:00:00 UTC,2445906.625000,25.7150,-84.8850,0172,13.5870
1984-07-25 03:30:00 UTC,2445906.645833,25.7150,-84.8850,0172,13.5610
1984-07-25 04:00:00 UTC,2445906.666667,25.7150,-84.8850,0172,13.5370
1984-07-25 04:30:00 UTC,2445906.687500,25.7150,-84.8850,0172,13.5430
1984-07-25 05:00:00 UTC,2445906.708333,25.7150,-84.8850,0172,13.5800
1984-07-25 05:30:00 UTC,2445906.729167,25.7150,-84.8850,0172,13.5060
1984-07-25 06:00:00 UTC,2445906.750000,25.7150,-84.8850,0172,13.4000
1984-07-25 06:30:00 UTC,2445906.770833,25.7150,-84.8850,0172,13.3560
1984-07-25 07:00:00 UTC,2445906.791667,25.7150,-84.8850,0172,13.3650
1984-07-25 07:30:00 UTC,2445906.812500,25.7150,-84.8850,0172,13.3280
1984-07-25 08:00:00 UTC,2445906.833333,25.7150,-84.8850,0172,13.2910
1984-07-25 08:30:00 UTC,2445906.854167,25.7150,-84.8850,0172,13.4070
1984-07-25 09:00:00 UTC,2445906.875000,25.7150,-84.8850,0172,13.5280
1984-07-25 09:30:00 UTC,2445906.895833,25.7150,-84.8850,0172,13.5690
1984-07-25 10:00:00 UTC,2445906.916667,25.7150,-84.8850,0172,13.6110
1984-07-25 10:30:00 UTC,2445906.937500,25.7150,-84.8850,0172,13.5750
1984-07-25 11:00:00 UTC,2445906.958333,25.7150,-84.8850,0172,13.5540
1984-07-25 11:30:00 UTC,2445906.979167,25.7150,-84.8850,0172,13.5140
1984-07-25 12:00:00 UTC,2445907.000000,25.7150,-84.8850,0172,13.4870
1984-07-25 12:30:00 UTC,2445907.020833,25.7150,-84.8850,0172,13.4230
1984-07-25 13:00:00 UTC,2445907.041667,25.7150,-84.8850,0172,13.3780